Helicity
79 40 5 36 50 68 100 198 175 80 65 78 75 78 82 70 52 53 50 27 27 37 27 39 32 56 80 116 88 42 27 49 32 128 75 87 54 99 141 105 163 134 116 109 137 193 312
43 34 30 33 24 53 74 126 217 122 94 86 84 76 89 71 60 58 41 23 24 26 18 34 36 56 96 94 55 -29 39 91 7 58 43 88 68 83 142 152 95 31 288 79 124 283 281
50 52 52 33 24 13 53 94 196 156 110 95 78 85 103 74 78 45 40 15 15 12 14 19 46 51 83 54 43 -6 10 44 144 11 52 62 57 113 106 156 129 122 49 72 -137 329 247
20 72 29 73 54 32 34 58 164 214 113 84 92 93 95 84 80 46 32 3 15 8 8 15 31 88 85 52 42 6 -11 -46 36 41 46 38 37 87 127 233 141 116 89 116 120 70 146
90 83 98 63 36 75 63 28 115 188 121 99 88 89 88 97 80 51 31 -2 13 11 -2 28 39 102 62 32 37 25 -3 24 58 28 81 89 70 123 132 126 173 153 139 71 93 49 62
50 111 131 92 53 3 113 112 98 173 142 107 85 93 90 96 82 36 40 -12 24 11 18 38 29 69 65 22 22 23 10 22 25 18 84 118 99 110 157 151 97 133 85 99 60 86 -26
-66 109 166 146 91 23 33 105 59 128 184 118 69 100 115 90 71 46 83 55 110 70 39 36 60 56 33 -1 29 36 -5 37 2 56 83 137 63 76 138 132 151 146 47 54 63 19 47
13 27 73 145 144 110 50 49 183 131 168 162 91 68 87 86 68 93 95 116 93 45 30 31 32 50 5 2 -16 -11 17 9 24 56 40 99 49 96 137 149 188 146 55 53 50 -39 -8
33 32 64 76 136 156 59 22 81 63 170 168 119 61 94 81 111 107 91 68 56 36 48 36 30 35 -1 -12 -28 -14 33 19 30 73 29 52 74 174 29 155 147 179 75 89 113 21 -16
87 105 56 22 -24 84 114 -38 26 125 201 184 120 78 81 82 131 107 93 64 52 29 124 59 44 33 14 -12 -34 -23 11 13 12 49 -7 49 134 163 36 95 117 100 55 123 64 49 67
39 34 39 25 -43 -4 67 -49 -34 159 236 190 135 106 81 99 154 124 91 64 36 30 274 71 33 26 20 10 -7 -36 17 38 -18 28 39 47 8 112 74 78 93 108 125 60 64 121 89
11 4 1 25 12 -70 -0 -1 -60 112 172 179 138 112 100 141 133 89 81 59 48 164 190 79 40 36 34 51 26 -10 -17 30 23 80 110 39 33 71 129 85 25 212 145 178 145 85 101
48 42 15 27 27 14 10 30 -74 79 165 181 159 79 109 124 116 99 84 60 182 216 86 85 67 34 25 41 26 -3 -11 62 76 92 95 68 73 55 52 123 91 116 153 119 100 125 102
50 61 60 29 34 42 35 71 19 -11 174 234 168 99 96 88 121 124 84 126 189 170 103 46 43 17 23 29 5 -2 59 88 69 86 88 60 94 81 80 116 75 194 104 79 114 133 144
66 66 41 -1 15 7 27 64 96 -20 130 212 164 141 158 107 115 104 89 131 149 133 78 55 27 7 -7 -6 -15 15 30 63 89 77 57 57 80 63 76 99 75 87 152 112 134 155 152
56 63 -3 16 -12 6 30 65 168 150 205 263 246 168 78 127 116 109 67 69 96 55 38 16 17 -3 12 1 -4 7 63 63 48 40 54 79 71 104 102 73 84 69 85 112 112 125 103
26 -11 -1 -57 -26 27 181 147 60 66 306 194 242 224 106 173 144 42 71 51 64 22 17 21 12 -22 -25 -11 -4 6 35 67 49 36 14 64 43 51 62 73 87 104 101 95 89 82 73
-31 -2 -18 -40 -23 197 523 102 -6 304 228 180 235 174 90 179 124 31 23 32 32 37 -11 -21 -11 -21 -42 -31 -18 23 33 78 67 38 10 28 17 41 17 43 61 59 72 92 91 99 108
-2 -4 -17 -46 73 259 162 81 162 359 155 313 340 219 106 141 53 19 -5 27 25 39 19 -15 -31 -50 -63 -48 -54 -30 23 63 83 81 44 36 36 97 74 43 52 47 47 65 79 86 77
22 9 -34 18 184 316 324 -16 427 232 122 250 285 101 111 85 38 -7 21 64 55 -6 5 -22 -36 -46 -64 -55 -72 -67 -15 73 74 77 72 48 45 41 42 33 52 61 44 57 88 86 59
26 15 -26 64 49 461 379 27 305 183 126 318 191 30 60 53 15 -17 6 37 66 69 -7 -24 -26 -33 -39 -52 -47 -56 -62 73 98 127 103 77 51 44 48 36 41 51 56 80 69 58 85
25 1 14 24 145 410 274 77 275 133 188 288 115 43 88 17 14 3 1 25 56 43 48 34 4 -0 -18 -27 -34 -30 -35 -28 -1 103 113 107 75 40 39 28 36 38 40 43 39 63 48
26 23 31 8 163 287 109 279 335 87 149 209 148 143 67 20 55 67 -4 30 31 58 -6 -15 13 16 2 -17 -23 -29 -43 -35 -19 6 62 78 67 76 66 73 45 -6 -0 33 40 43 63
36 63 65 22 351 305 12 222 89 -22 143 99 132 96 68 60 52 25 16 15 61 16 41 34 -8 -8 -11 -30 -10 -25 -44 -58 -59 -62 36 66 90 85 60 81 59 40 58 59 43 67 47
43 65 77 245 324 220 13 248 161 8 87 104 118 78 52 68 60 77 62 82 142 123 38 20 1 -12 -13 -12 2 -5 -25 -42 -47 -56 -40 -25 -13 -20 -6 43 49 50 66 69 70 76 84
52 79 138 244 254 -20 60 301 146 -20 -2 87 130 99 36 55 83 117 86 85 80 38 50 33 18 2 -3 16 10 65 70 38 36 -28 -43 -23 -49 -30 -26 -54 -62 66 66 62 54 68 85
45 68 154 312 422 115 270 261 93 -11 10 84 117 101 49 49 148 150 84 83 47 39 -2 26 44 15 -6 30 41 14 20 8 68 99 53 18 -24 -9 -10 -26 -26 62 63 78 85 52 81
66 65 149 233 28 200 272 131 41 -18 31 68 106 114 41 39 174 152 113 104 97 86 13 24 22 24 8 11 6 6 -26 14 7 11 31 72 74 30 23 51 16 42 97 76 51 95 75
52 115 224 190 46 108 270 93 48 38 58 73 101 118 108 65 116 129 116 147 115 106 57 115 -32 15 -5 -15 -28 -42 -35 -33 4 23 -15 54 33 18 25 34 23 13 18 92 76 80 67
Wind_Speed
78 77 51 39 41 43 40 40 44 42 47 54 58 59 58 59 56 54 52 45 38 43 40 38 45 46 43 41 36 27 14 33 48 46 54 61 63 66 74 83 73 96 75 80 59 53 50
82 81 81 79 57 53 47 35 38 36 44 49 53 57 57 57 56 54 49 43 36 40 37 39 43 43 39 48 33 30 11 32 26 50 55 59 54 56 67 69 85 87 78 83 78 49 51
86 87 87 84 84 60 47 41 32 38 41 43 49 53 55 56 56 54 48 41 38 38 33 39 40 39 37 33 32 38 25 8 19 54 57 61 54 53 54 65 73 72 73 75 94 81 56
92 90 88 89 86 83 73 49 33 32 37 39 44 50 54 54 55 52 46 39 39 34 31 36 36 36 39 25 29 38 31 26 9 57 64 51 58 60 53 54 73 80 77 84 60 72 56
93 94 93 91 90 88 87 64 39 33 29 38 41 48 53 53 54 51 42 37 36 30 32 34 37 39 43 28 27 34 30 21 19 37 39 39 46 39 51 59 78 82 75 88 61 59 53
95 95 95 96 95 92 90 92 41 34 29 34 36 43 51 51 52 47 42 34 33 32 33 32 30 42 38 39 25 33 30 25 25 27 25 32 36 47 51 63 89 93 83 72 78 63 72
97 98 98 98 99 98 94 90 73 36 33 31 42 40 47 51 48 43 41 36 37 35 30 36 39 37 40 34 26 17 27 27 25 26 33 30 46 56 56 47 54 73 74 83 72 57 66
103 102 100 102 100 99 98 94 91 40 34 31 35 37 44 50 44 40 36 32 33 32 33 28 36 36 35 36 36 32 28 25 24 25 27 35 45 47 39 43 46 62 76 73 67 64 62
111 108 104 103 104 103 100 97 95 69 34 32 31 35 40 46 38 36 29 29 31 32 30 33 35 36 35 34 34 34 26 24 23 30 37 31 45 46 47 40 42 51 66 72 65 55 62
112 114 118 114 109 107 102 101 95 93 32 31 28 35 35 41 36 31 28 26 30 31 37 36 37 35 33 33 33 33 23 25 26 32 47 33 36 44 46 52 45 46 51 53 55 57 60
110 113 116 117 117 112 108 102 96 94 34 29 27 30 29 29 32 27 26 28 29 30 53 33 35 34 36 35 32 28 24 28 30 41 50 39 31 39 42 54 43 43 42 48 48 51 47
108 113 113 114 118 116 109 104 99 95 42 29 25 25 25 31 26 24 26 28 29 36 42 35 32 33 33 32 33 33 34 28 32 41 41 39 35 38 36 41 33 36 39 35 33 40 55
91 100 108 115 118 119 110 107 96 93 46 27 21 23 21 24 26 18 24 26 31 36 32 36 33 32 33 38 41 38 42 41 47 49 40 37 41 37 31 35 31 30 42 49 54 54 55
83 84 95 106 111 112 108 104 98 89 45 27 20 19 23 42 17 18 24 24 30 30 31 34 35 35 38 40 46 48 53 49 45 43 34 39 39 38 28 32 32 29 38 43 55 59 52
70 78 77 104 102 102 103 101 94 87 47 29 18 28 27 24 13 15 27 19 27 26 32 37 40 37 39 38 42 44 46 45 47 51 33 33 33 34 44 35 34 29 38 32 34 38 47
71 63 67 77 100 101 104 102 96 91 47 31 28 30 38 13 12 4 30 18 23 28 36 40 40 36 40 41 45 47 46 43 49 49 40 32 30 33 40 34 27 37 37 39 36 49 55
66 79 71 65 71 93 99 106 95 76 50 33 31 40 44 18 29 48 31 25 26 32 36 38 35 37 37 42 42 44 49 44 47 41 31 37 27 33 34 34 36 33 36 33 31 34 47
82 73 69 65 79 87 78 79 88 59 54 42 51 50 45 36 48 50 40 33 31 37 37 36 38 36 39 42 44 43 51 38 46 40 36 32 34 40 46 36 36 34 39 38 41 41 37
80 71 72 76 78 61 57 75 78 69 61 47 48 44 47 51 59 55 43 39 36 40 40 38 38 38 39 40 40 44 43 29 30 35 38 33 35 21 34 38 39 42 41 39 35 39 41
79 75 73 73 63 57 53 47 61 66 61 47 45 58 51 63 53 54 50 45 42 42 42 40 40 39 40 40 36 39 33 33 28 27 28 26 25 26 31 38 30 34 41 41 33 44 45
73 73 74 68 58 57 59 66 85 70 71 48 55 58 54 65 75 61 52 50 47 45 42 44 41 42 43 40 37 37 35 20 28 27 26 26 29 27 25 26 27 32 38 29 32 37 43
71 68 61 60 55 58 56 68 73 66 64 51 60 47 51 47 55 69 57 55 53 48 47 46 44 46 46 43 37 38 38 36 25 30 25 27 28 26 29 32 33 40 41 44 48 52 63
67 66 64 59 59 56 49 66 67 94 58 53 47 41 40 46 46 67 62 58 57 50 44 48 47 51 50 46 44 42 38 37 30 8 21 32 29 33 40 40 44 52 52 53 49 47 48
64 64 63 56 56 56 63 51 104 94 59 42 47 44 42 48 49 67 62 55 58 53 49 50 50 48 46 45 44 41 40 38 37 34 13 15 27 34 38 37 44 40 35 34 43 47 40
62 63 60 56 52 48 72 65 54 87 55 41 47 44 40 38 43 47 29 19 2 17 50 51 45 47 50 48 46 44 38 35 33 33 33 32 28 25 21 3 49 40 35 36 37 39 39
58 55 56 52 47 61 82 50 69 53 48 38 40 39 36 32 40 40 22 12 33 55 51 49 45 46 46 45 43 42 42 39 38 34 32 35 31 29 28 27 23 37 30 29 32 46 35
52 51 50 52 48 63 43 41 46 46 45 39 39 35 33 32 32 37 32 27 43 36 38 51 49 46 42 41 41 40 39 39 41 40 37 36 31 28 25 21 18 36 31 33 38 41 30
49 48 51 50 52 34 42 39 40 42 45 42 37 31 34 32 25 29 32 35 36 39 46 49 44 41 43 39 37 38 37 38 37 38 38 37 35 29 26 21 14 14 20 27 37 31 31
46 47 53 51 48 37 36 42 46 31 47 40 42 25 16 23 28 19 13 18 26 35 15 40 40 40 41 39 37 37 36 36 37 37 34 35 32 30 29 23 25 24 18 25 25 29 34
Wind_Direction
337 336 341 342 345 344 339 336 337 342 346 345 347 349 351 353 356 357 358 360 0 1 6 7 5 6 12 9 6 17 175 351 324 271 246 231 229 224 221 220 223 219 220 216 225 234 231
333 332 332 335 338 340 340 332 334 334 341 345 347 348 350 353 356 358 359 1 3 3 9 10 8 12 18 7 24 260 141 5 268 261 238 227 227 226 225 222 216 217 224 220 221 231 233
326 325 326 330 333 336 338 336 327 329 336 342 345 348 351 353 356 357 360 3 5 7 13 12 13 19 18 18 28 265 246 189 178 217 226 221 226 226 227 221 221 220 225 215 221 229 232
321 320 320 322 326 329 330 334 325 328 330 337 345 348 350 353 356 358 2 5 7 13 19 16 22 27 18 38 32 272 257 289 79 164 195 219 215 223 223 231 218 217 220 212 220 226 233
320 317 316 316 318 321 324 329 324 323 321 332 341 347 348 352 355 358 4 7 11 21 23 26 30 32 25 44 50 269 254 245 231 195 208 224 228 222 219 219 210 214 214 215 226 227 239
321 318 315 313 312 314 317 321 318 316 317 327 337 348 346 351 356 0 5 11 20 27 31 35 37 30 37 38 71 264 260 250 246 244 247 227 231 220 221 220 212 212 217 219 219 225 220
319 316 315 312 307 307 309 312 319 313 316 319 327 344 347 349 357 3 10 21 26 29 40 37 35 39 41 57 118 189 260 262 242 243 229 230 221 218 218 226 224 218 220 221 224 223 227
315 314 311 309 307 303 303 304 312 305 309 314 324 338 345 347 359 7 16 29 31 35 35 46 41 51 56 68 71 106 284 288 255 238 231 226 221 220 218 222 222 220 219 224 227 228 236
312 310 310 308 304 302 298 299 300 308 301 309 321 332 343 346 2 8 24 31 37 41 44 47 51 57 63 68 72 89 276 285 271 240 216 230 221 221 216 222 220 219 218 218 222 230 236
315 310 305 303 302 300 296 292 293 301 291 300 310 324 339 345 358 14 24 40 39 47 36 42 50 61 68 72 74 96 165 278 249 219 199 213 231 214 217 218 216 215 223 225 220 224 234
316 312 307 303 298 295 291 289 288 288 277 289 299 319 337 347 357 13 31 41 45 58 19 56 61 80 73 70 78 87 251 250 225 201 197 207 211 215 221 216 223 221 233 223 225 233 240
314 309 306 302 298 295 287 284 283 278 272 276 288 311 332 337 357 14 31 45 61 40 30 52 71 68 67 77 79 83 194 242 220 194 191 200 212 220 224 223 233 247 221 225 236 240 239
317 315 306 300 294 288 284 278 276 278 265 261 277 299 324 340 347 37 44 82 46 36 62 53 66 77 74 70 75 94 116 193 187 183 186 193 198 206 228 227 237 235 213 221 227 233 237
316 317 312 303 292 281 278 272 271 274 255 244 261 288 308 293 18 38 72 79 39 58 69 78 80 82 79 84 87 100 138 173 190 186 193 193 194 203 225 223 234 225 226 230 231 231 236
314 316 314 294 286 280 273 265 265 263 246 227 241 276 289 301 4 28 125 85 60 75 86 83 84 85 87 95 102 118 170 182 191 179 198 204 211 212 191 206 223 233 234 259 242 248 242
315 313 268 266 286 277 270 257 256 263 214 201 242 270 263 301 332 267 155 126 99 97 99 101 80 99 94 101 107 120 184 191 183 178 189 214 208 223 209 227 250 239 245 251 257 243 246
285 270 267 265 268 274 262 250 245 252 200 197 236 261 247 269 259 209 164 151 128 121 110 107 97 103 109 109 119 126 180 203 196 196 206 188 226 224 229 234 238 247 250 261 268 272 258
272 267 267 267 276 273 255 232 239 207 188 216 236 242 233 237 228 202 178 161 141 123 123 108 111 112 120 118 117 132 165 221 212 206 203 211 202 205 208 241 256 267 260 265 258 263 271
273 268 271 275 276 259 255 239 234 180 180 219 233 233 231 225 212 192 191 171 143 123 123 115 113 118 124 126 115 123 173 232 238 242 238 253 254 313 279 277 269 256 257 262 270 271 266
272 273 274 279 268 267 262 235 179 183 202 228 225 217 223 217 225 201 182 155 132 137 126 119 114 118 125 129 125 126 169 235 249 260 273 293 306 312 287 276 289 278 266 265 277 268 266
269 273 279 273 272 262 264 231 201 198 208 224 220 216 219 209 198 192 188 155 134 126 131 126 117 118 119 123 131 137 132 288 272 279 286 294 280 296 308 315 313 291 279 281 278 278 272
268 269 268 266 270 265 272 210 198 196 213 218 212 218 215 219 210 173 186 171 145 134 128 127 118 121 119 117 128 132 134 141 121 274 289 296 295 311 304 298 299 282 282 279 274 273 265
266 269 270 273 264 264 247 199 194 161 212 216 218 219 214 212 213 165 179 168 150 123 142 134 125 116 112 115 121 121 127 137 126 49 301 290 298 295 286 288 287 275 259 265 278 280 280
262 266 266 266 264 259 211 199 183 170 214 224 216 214 218 213 211 180 170 185 140 141 124 138 133 123 130 127 125 123 122 121 123 141 18 331 301 297 294 296 289 297 313 312 294 290 296
262 267 268 266 266 252 203 204 199 196 217 224 216 216 222 220 217 213 225 224 191 230 125 134 148 139 135 129 115 107 113 120 130 139 133 138 137 141 149 79 288 301 306 306 305 308 314
258 261 265 267 262 210 187 156 201 200 213 220 218 223 227 222 221 221 229 217 119 142 152 152 155 148 142 126 110 103 99 106 108 125 135 131 142 151 158 169 169 305 320 332 329 296 322
251 257 255 260 257 213 205 165 194 183 214 218 217 224 227 224 232 224 228 225 209 174 116 144 149 148 151 119 112 105 103 117 99 107 117 123 139 145 141 150 168 306 310 316 309 305 324
256 255 254 244 218 210 196 182 192 202 213 220 220 233 227 227 236 237 234 229 224 219 129 137 126 154 135 112 116 113 108 118 111 115 111 111 110 117 124 122 144 119 335 322 317 323 323
258 261 252 226 203 209 192 192 204 195 211 218 214 225 237 235 226 240 257 255 240 228 260 213 128 119 128 115 115 115 111 113 108 100 119 105 115 104 117 115 120 118 101 353 329 319 317